{"data":{"norad_id":62137,"intl_designator":"2024-222Z","name":"STARLINK-32570","alt_names":[],"object_type":"PAYLOAD","status":"ACTIVE","operator":null,"country":"US","launch_date":"2024-11-27","launch_site_code":"AFETR","launch_vehicle":null,"mission":null,"orbit_class":"UNKNOWN","rcs_meters":null,"size_class":null,"mass_kg":null,"dimensions":null,"purposes":["comms"],"wikipedia_slug":null,"has_3d_model":false,"image_url":null,"decayed_at":null,"tle_current":{"epoch":"2026-05-25T03:46:54.498144Z","epoch_age_seconds":71999,"freshness":"FRESH","line1":"1 62137U 24222Z   26145.15757521  .00021157  00000+0  77556-3 0  9990","line2":"2 62137  43.0037  64.3370 0001359 271.8788  88.1908 15.27604615 84597","mean_motion":15.27604615,"eccentricity":0.0001359,"inclination_deg":43.0037,"raan_deg":64.337,"arg_perigee_deg":271.8788,"mean_anomaly_deg":88.1908,"bstar":0.00077556,"rev_number":8459,"period_min":94.265229749911,"perigee_km":482.04296569026,"apogee_km":483.90781603809,"semimajor_km":6861.1123908642,"source":"CELESTRAK","updated_at":"2026-05-25T13:38:19.568066Z"}}}